Temp
2 3 3 2 2 3 3 2 -3 4 5 3 3 2 4 6 6 6 6 6 6 6 6 6 6 7 10 12 11 11 11 10 11 12 12 12 12 11 11 11 11 11 11 11
2 2 2 2 2 2 3 -2 -1 3 4 -3 -3 1 4 5 5 5 6 6 7 7 6 6 6 7 10 10 11 11 11 11 10 11 12 12 12 12 12 10 10 10 9 12
2 2 2 2 2 2 3 -3 -3 -1 1 1 2 2 3 4 6 5 6 6 6 6 6 6 6 7 9 10 10 11 11 10 10 10 11 11 11 11 11 10 7 10 10 11
2 2 2 2 2 2 2 -1 -2 0 -1 -0 2 2 3 3 3 5 5 5 6 6 5 6 6 7 8 9 10 10 10 9 10 10 10 10 10 10 10 10 10 9 11 10
2 2 2 2 2 2 2 -0 -2 1 1 2 2 2 2 4 4 4 4 5 6 6 5 6 6 8 6 8 9 9 9 9 9 9 10 9 9 9 9 9 10 9 10 10
2 2 2 2 2 2 1 0 1 0 0 1 1 1 2 4 4 5 4 4 4 5 6 5 6 6 6 7 8 7 7 8 8 8 9 9 8 9 9 9 10 10 9 11
2 2 2 2 2 2 2 2 1 0 -1 1 2 3 3 3 4 4 6 6 5 7 5 6 6 6 6 6 6 6 7 7 6 7 8 6 9 10 10 9 10 10 11 12
2 2 2 2 2 2 2 2 1 -0 -1 0 2 3 3 3 4 5 5 6 6 4 4 4 6 6 7 8 5 5 6 7 4 4 6 8 9 10 11 10 10 10 10 11
2 1 2 2 2 2 2 2 2 1 -1 -0 3 3 3 3 3 4 5 5 4 4 3 2 5 5 7 4 6 7 5 6 6 5 5 5 9 10 11 9 8 8 7 9
1 1 2 2 2 2 2 1 1 1 0 1 2 2 3 3 3 1 3 3 3 3 0 3 4 5 7 6 5 3 7 6 6 7 6 7 9 10 11 8 9 7 8 10
1 1 2 2 2 2 1 1 1 1 -1 -0 2 3 2 2 2 1 2 1 2 1 3 3 4 5 6 6 8 6 6 6 6 6 6 5 8 8 8 9 9 9 9 10
1 2 2 2 2 2 1 1 2 1 1 -0 2 2 3 3 3 2 2 3 3 1 -0 1 3 4 5 5 6 6 6 6 6 7 7 7 6 8 8 9 8 9 9 10
2 1 2 2 2 2 1 1 1 1 1 1 0 1 5 4 3 3 2 2 4 3 3 4 4 3 4 5 6 6 6 5 6 6 7 6 6 8 9 7 7 9 7 7
1 1 1 1 2 1 1 1 1 1 1 1 1 3 3 6 5 3 3 3 3 3 4 4 3 3 5 5 6 6 6 6 6 7 6 7 9 8 7 7 8 4 4 3
1 1 2 2 2 1 1 1 1 2 1 -0 0 2 5 4 4 3 3 2 2 1 2 2 4 3 4 4 4 6 6 6 6 6 6 6 7 7 6 5 5 5 4 2
2 1 1 1 1 2 1 1 1 2 2 2 1 2 1 5 5 3 2 2 1 2 2 3 3 4 5 5 6 5 5 5 4 5 6 7 5 6 5 3 3 2 2 2
2 1 1 1 1 1 1 1 2 1 1 1 1 0 2 4 3 2 1 3 2 2 3 3 3 3 4 4 4 5 4 4 3 3 5 5 5 5 5 3 1 0 -0 -1
1 1 1 1 1 1 1 2 2 1 1 1 1 1 1 4 3 4 3 3 3 3 3 4 4 4 4 5 4 3 2 3 3 2 3 3 3 3 4 5 3 0 -1 -2
1 1 1 0 1 0 1 2 1 2 2 1 1 1 1 4 5 5 4 4 4 4 4 4 4 4 5 4 3 2 1 1 1 1 2 1 1 1 2 1 0 -1 -1 -2
1 1 -0 0 0 2 2 1 1 1 1 2 2 1 1 3 3 4 4 3 5 5 5 5 5 4 2 2 1 -0 -0 -0 -0 -0 -0 -0 -1 -0 0 0 -1 -1 -2 -2
1 -0 1 2 2 2 1 1 2 2 2 1 2 2 3 3 2 4 3 4 4 5 5 5 5 4 1 0 -0 -1 -2 -2 -2 -2 -2 -2 -2 -2 -2 -1 -1 -2 -3 -4
1 2 2 2 2 2 1 2 1 2 2 1 3 3 3 2 2 3 3 4 2 4 3 5 5 1 -1 -1 -1 -2 -2 -3 -4 -4 -4 -4 -3 -4 -4 -3 -3 -5 -6 -6
2 2 1 2 2 2 0 1 1 2 1 0 2 3 0 1 3 2 4 4 3 2 3 5 1 -0 -1 -2 -2 -3 -3 -5 -5 -6 -6 -6 -6 -6 -7 -6 -7 -6 -7 -8
2 3 3 2 1 2 2 2 2 1 -0 0 0 3 2 2 1 3 3 2 3 4 4 2 -1 -2 -3 -3 -3 -4 -4 -6 -8 -9 -8 -9 -9 -9 -9 -9 -8 -8 -9 -9
2 2 1 2 -1 0 0 0 0 1 1 0 1 1 2 2 2 3 1 4 4 1 -1 -4 -2 -3 -4 -4 -4 -5 -6 -9 -10 -11 -12 -12 -11 -11 -11 -11 -10 -10 -10 -10
-1 -2 0 0 2 1 1 2 1 0 1 1 1 0 1 3 1 3 3 3 -0 -4 -5 -5 -5 -5 -6 -6 -6 -8 -9 -10 -10 -10 -11 -11 -11 -12 -12 -12 -11 -11 -11 -11
-3 -5 -3 -1 -2 -2 -2 -2 -2 -2 1 2 1 0 2 1 1 -1 -3 -6 -6 -4 -5 -7 -8 -7 -7 -9 -9 -9 -8 -9 -9 -10 -10 -11 -11 -11 -12 -14 -13 -13 -12 -12
Height
805 807 808 809 808 807 807 807 822 805 804 807 808 813 804 798 795 793 792 787 786 785 782 779 776 766 749 736 736 738 734 734 728 718 715 712 712 719 720 727 735 735 735 729
804 807 808 808 808 809 809 814 813 806 805 835 833 814 804 800 798 794 788 784 780 778 779 781 773 764 744 741 736 737 739 736 738 727 719 719 720 721 724 732 738 739 747 722
804 805 806 807 808 809 810 816 825 814 809 812 812 814 810 802 794 793 787 782 780 780 777 773 769 764 752 744 740 736 735 739 737 740 733 726 723 727 727 736 758 738 732 722
802 803 805 805 807 809 811 816 824 818 824 820 812 814 810 806 802 790 785 781 777 777 775 769 765 759 757 747 741 739 739 740 735 732 731 728 729 733 734 733 727 740 722 726
800 801 803 804 806 808 811 817 822 817 816 813 813 811 809 801 796 793 786 783 775 775 773 768 763 754 759 750 743 743 742 742 739 736 731 734 733 733 734 727 720 728 721 717
797 800 801 803 805 807 811 815 816 818 817 815 816 814 807 799 797 782 782 782 779 772 765 766 759 757 753 749 747 749 748 746 744 741 734 735 736 722 722 719 718 717 720 704
795 797 799 801 803 805 808 812 815 818 821 815 810 805 803 797 792 787 776 774 774 764 762 756 752 752 749 748 746 746 747 749 751 747 740 753 716 708 708 714 707 707 701 695
791 794 796 799 801 803 806 809 813 817 822 814 806 802 801 794 787 782 778 773 771 766 764 765 753 751 742 734 739 743 741 745 761 765 745 723 715 708 703 707 704 701 697 689
788 791 793 796 798 801 804 807 810 814 819 811 803 802 799 797 792 786 778 773 769 768 769 774 763 762 748 757 741 733 740 740 742 749 747 751 712 699 698 705 711 702 703 689
785 788 790 793 795 798 801 804 807 811 812 804 802 803 800 797 796 797 787 782 774 771 784 776 771 762 749 746 747 754 734 735 733 729 735 722 706 699 697 716 710 704 697 691
782 785 788 790 792 795 798 801 804 807 808 802 798 798 798 798 798 800 790 790 785 784 777 778 771 763 753 745 732 737 733 731 727 728 735 741 707 703 709 706 700 699 695 692
779 782 785 788 790 793 796 799 801 803 804 800 795 793 792 791 791 794 791 790 789 788 793 788 777 772 762 754 743 738 736 733 730 727 722 716 714 709 704 701 702 699 695 691
775 778 782 786 788 790 794 795 798 801 801 795 794 786 780 782 781 784 792 786 783 781 779 778 777 777 767 759 745 739 737 732 723 723 715 715 712 706 703 704 703 698 699 695
771 775 779 783 786 788 790 792 796 798 800 796 786 778 776 774 774 776 778 778 779 780 778 779 778 775 763 755 746 745 740 732 728 720 717 712 704 705 705 704 699 704 705 704
768 772 776 779 783 786 789 791 793 794 798 796 787 776 764 762 767 768 772 775 779 782 783 781 773 769 765 755 751 740 738 735 727 721 720 717 711 707 707 710 712 711 711 712
765 769 773 776 780 784 787 788 786 788 791 792 788 770 761 758 759 762 766 769 775 776 778 772 768 763 762 755 745 743 743 741 738 731 719 713 713 713 714 716 719 720 719 718
762 766 770 773 777 780 782 781 781 781 789 790 786 777 759 755 756 759 763 766 767 769 770 768 765 763 762 757 753 745 746 743 739 735 726 722 722 721 721 723 726 724 725 726
758 763 767 771 775 778 778 777 778 781 786 788 787 778 767 753 757 757 757 761 763 762 762 760 757 756 755 748 748 750 751 744 741 741 740 740 736 730 726 725 727 728 730 730
755 760 765 768 771 771 769 774 777 780 784 784 781 779 772 753 751 751 753 754 753 755 754 752 752 748 744 751 754 756 756 755 752 746 742 740 738 737 734 733 733 732 734 734
753 758 760 761 761 764 770 773 776 778 777 775 771 770 768 756 753 750 752 752 745 745 744 746 744 747 756 759 761 762 762 760 756 749 744 744 743 742 739 738 739 738 737 737
746 749 753 755 759 763 768 769 771 770 767 766 759 758 757 753 758 753 754 748 748 745 743 742 738 746 759 764 764 765 765 765 762 761 758 755 753 749 745 742 742 742 741 740
736 741 746 753 755 759 763 764 768 764 757 753 749 750 751 752 750 752 752 748 754 744 747 740 737 762 768 768 768 768 767 766 764 763 761 758 755 754 751 748 746 746 745 745
732 737 742 743 749 749 757 755 753 749 747 747 746 746 751 752 750 752 750 748 754 751 749 738 757 766 770 770 770 769 768 768 766 765 763 761 759 757 755 752 750 748 748 748
723 726 728 736 741 735 734 733 735 735 739 741 745 744 747 747 753 750 751 752 749 741 745 752 768 771 772 772 771 770 770 770 769 768 766 765 763 760 758 755 753 752 751 751
714 719 727 725 730 728 728 729 732 734 736 739 743 745 743 749 750 747 755 745 743 753 767 778 772 773 774 774 773 774 773 773 771 770 768 767 766 763 761 759 757 755 754 754
719 726 724 725 722 727 729 729 732 736 736 737 738 747 750 745 751 744 747 748 761 780 778 777 777 777 777 776 776 775 775 774 773 772 771 769 768 766 765 762 760 759 758 757
728 738 734 730 732 735 738 738 740 740 736 738 741 751 746 751 750 762 773 787 785 778 779 779 779 778 778 777 776 775 774 774 773 773 772 771 769 768 766 766 765 763 762 762
Wind_Speed
1 1 1 3 6 7 4 2 3 6 5 2 1 1 2 5 3 4 7 5 7 6 4 4 4 6 7 4 3 6 3 2 3 3 7 3 4 3 3 3 3 2 1 5
3 3 1 3 4 3 1 2 2 5 2 2 2 4 4 4 5 5 4 4 4 3 3 5 5 4 5 7 4 2 5 4 4 1 2 5 6 3 4 4 3 4 3 5
5 4 2 2 2 1 1 3 3 3 2 2 1 2 4 4 6 6 8 8 7 8 5 8 5 3 7 7 5 12 2 4 4 4 3 0 2 1 3 5 3 2 5 12
7 5 3 2 1 3 3 2 1 1 2 3 2 3 4 10 5 4 3 4 9 7 5 3 9 5 12 7 4 3 1 6 3 4 4 3 3 4 6 7 6 5 13 9
6 5 3 3 1 8 3 3 2 1 3 3 3 3 3 10 10 4 5 5 11 5 6 7 3 1 5 5 2 2 1 3 1 7 3 5 5 7 10 8 10 8 16 20
7 7 6 4 5 12 3 3 0 3 3 2 0 3 3 8 13 8 9 9 5 7 10 9 14 11 6 6 5 3 2 2 2 5 2 4 7 16 13 7 9 9 11 18
9 9 8 6 9 13 6 5 4 2 3 2 3 5 12 14 12 13 13 9 3 4 12 9 6 7 10 8 10 7 3 2 2 3 3 6 6 2 3 8 13 10 14 15
11 11 10 9 11 14 14 9 5 3 3 4 8 6 6 14 10 3 3 3 5 8 5 3 4 3 4 5 7 10 14 5 2 2 4 9 9 9 4 4 6 9 15 15
13 12 10 9 11 15 17 14 12 3 1 4 4 3 7 5 4 5 4 5 7 5 2 3 1 2 2 5 7 3 5 7 4 3 4 5 5 1 2 3 7 8 15 3
15 12 10 10 10 15 19 7 16 4 2 4 3 3 2 2 3 4 5 7 6 4 3 2 1 3 3 3 3 3 2 3 13 11 4 6 5 8 2 2 4 4 10 6
16 13 11 8 10 12 21 9 15 12 2 4 6 4 4 2 1 2 4 5 4 4 3 1 2 2 4 4 5 5 3 3 2 2 2 6 4 4 3 0 8 7 10 7
16 14 12 9 9 14 15 6 13 20 4 5 4 11 16 13 15 3 2 3 4 3 2 2 2 2 2 5 4 3 4 1 3 3 3 3 6 5 7 1 4 5 5 5
16 15 14 11 11 12 17 9 11 10 2 7 6 10 22 21 28 26 3 2 4 2 4 1 1 4 2 3 3 4 3 5 2 2 2 8 10 5 4 6 10 8 4 6
18 16 15 14 13 13 11 12 12 7 2 3 6 7 12 12 11 19 27 12 0 1 2 1 2 2 3 3 7 6 3 6 7 3 5 9 2 9 6 6 3 9 8 9
17 15 14 15 13 12 13 16 17 17 5 2 5 16 30 19 26 21 20 17 4 2 1 2 3 2 2 3 3 2 5 4 3 2 7 4 5 7 10 12 12 8 8 9
18 15 14 15 14 11 8 2 19 23 20 2 3 5 6 13 10 14 13 13 3 3 3 3 3 3 2 2 3 3 7 10 9 6 15 8 6 10 11 13 10 11 10 10
16 16 15 15 16 14 6 2 3 18 21 2 3 4 4 3 4 3 2 9 3 3 2 3 3 2 2 2 3 6 10 10 9 15 15 11 15 9 9 10 9 13 13 10
16 16 15 14 12 12 13 24 9 23 6 2 2 5 4 5 2 2 3 3 2 3 3 2 2 2 3 3 3 6 9 9 10 16 11 9 10 13 14 9 7 8 8 7
17 16 13 11 11 6 5 9 19 17 3 3 3 3 3 2 1 2 2 3 3 3 4 3 3 2 3 4 5 8 11 9 13 13 9 12 12 13 13 12 10 6 5 5
18 15 7 3 8 13 19 10 4 2 2 3 4 2 3 1 2 1 1 2 1 2 3 2 3 2 8 7 6 6 9 11 12 12 14 15 13 13 13 11 8 6 4 4
12 4 3 7 27 7 2 2 2 3 3 4 4 8 4 2 2 2 2 2 1 1 1 2 2 2 3 6 7 5 6 7 9 9 8 9 10 10 10 10 8 7 6 4
17 11 15 14 3 3 4 5 3 5 5 3 4 4 5 2 1 2 1 1 2 3 0 2 2 3 5 5 5 6 6 8 9 10 9 11 10 12 11 9 9 8 6 6
19 5 4 4 2 4 8 8 4 5 3 4 3 3 3 1 1 1 1 2 4 1 0 1 2 3 4 4 4 4 7 10 11 10 11 12 11 11 12 10 9 6 7 7
3 5 7 5 5 6 4 4 5 4 3 4 3 3 3 1 2 1 2 3 1 2 2 2 1 3 3 3 4 5 7 8 6 8 10 10 10 10 12 12 9 6 8 9
3 4 6 5 2 1 2 2 3 2 2 3 2 2 1 1 2 2 1 2 3 2 2 1 1 2 3 3 4 3 4 5 5 8 8 10 10 10 11 13 10 8 9 11
3 5 2 2 3 1 2 2 2 2 1 1 2 2 2 1 3 3 4 2 3 2 1 1 1 2 3 3 3 1 1 1 2 5 6 7 9 9 7 11 12 10 10 12
4 2 3 2 4 3 2 2 2 4 1 2 2 3 5 2 2 1 3 3 2 1 1 1 1 1 2 3 3 2 2 1 2 3 5 5 5 5 8 9 9 10 11 12
Wind_Direction
251 299 236 356 2 2 23 32 37 348 0 22 1 177 227 321 319 294 268 253 257 246 272 263 256 250 279 3 344 344 317 304 315 320 324 278 78 79 61 125 164 140 191 260
252 240 267 352 9 4 84 66 289 8 47 92 314 309 288 264 265 258 289 275 243 255 272 294 239 290 321 301 48 66 348 351 315 114 355 13 68 63 88 80 78 209 159 267
247 219 251 319 1 95 118 74 22 332 23 156 245 304 292 296 315 293 253 259 284 281 262 228 265 273 312 333 320 329 125 260 233 253 320 251 38 62 119 144 132 223 238 274
221 214 248 246 221 169 148 54 259 209 311 330 310 5 277 289 293 245 290 282 239 269 272 279 226 243 278 285 275 306 314 238 281 251 255 299 265 242 205 197 189 177 267 267
207 221 216 184 188 167 106 138 136 266 290 305 292 280 250 277 289 267 269 244 286 306 264 251 305 3 237 231 268 289 320 277 347 295 280 246 253 256 247 257 273 245 258 266
218 230 231 224 187 172 135 171 12 99 277 298 291 240 272 293 313 296 253 272 298 271 276 282 252 250 264 232 202 236 248 214 185 261 200 275 276 246 230 223 225 225 239 248
227 234 233 234 199 199 159 164 152 148 273 205 229 280 296 313 280 284 288 270 242 304 318 291 259 248 245 234 237 190 226 210 164 261 240 237 248 304 202 226 246 243 258 259
237 229 232 237 209 204 199 184 153 145 256 242 287 275 309 302 294 287 289 320 269 308 294 354 319 315 325 269 226 201 209 186 227 189 217 286 302 275 215 202 269 253 261 259
225 228 235 238 223 208 205 215 196 138 130 252 266 309 293 300 324 328 288 307 316 10 55 49 10 289 310 296 324 56 164 218 191 175 218 230 241 350 143 145 284 346 317 273
219 227 233 244 224 206 205 202 200 159 235 253 241 233 298 315 345 296 304 333 337 30 17 30 314 285 269 284 281 323 212 199 217 221 213 277 250 281 298 139 283 321 313 320
215 225 230 238 220 205 196 212 209 195 214 269 224 232 242 289 188 239 300 351 355 338 29 11 338 298 319 302 279 276 320 273 219 99 136 269 9 354 176 34 308 286 286 273
216 221 221 219 205 188 202 199 211 215 212 255 278 258 244 235 233 202 251 200 308 244 38 340 304 303 284 327 299 40 303 267 296 217 229 332 323 312 283 239 309 286 312 323
215 212 215 213 209 208 204 187 187 205 251 268 259 253 281 263 248 237 219 236 222 264 197 321 350 282 268 296 276 289 291 293 255 274 8 305 305 303 342 114 263 301 23 16
213 212 217 219 210 211 207 205 201 206 287 269 276 278 266 280 244 229 219 234 105 18 1 326 246 244 206 269 283 292 266 304 309 282 276 302 318 329 338 348 302 74 45 42
214 211 218 211 220 223 219 224 228 227 202 268 284 300 290 269 238 233 221 217 205 164 267 233 262 233 274 246 278 275 333 328 322 296 298 305 303 8 49 56 49 50 72 50
210 214 218 217 218 212 198 237 237 226 210 273 297 279 278 278 240 207 189 194 169 172 195 226 240 248 262 269 286 46 14 349 12 331 320 25 65 45 48 66 55 51 57 49
211 219 218 213 212 203 185 199 317 204 187 255 293 291 269 276 161 159 136 176 191 157 205 224 236 233 141 259 262 0 354 341 5 6 2 7 17 359 57 78 78 69 65 54
216 212 213 215 211 216 223 237 283 165 156 195 254 269 313 180 161 179 168 157 175 190 202 212 214 228 206 233 49 355 351 358 4 357 14 3 359 16 20 35 63 66 65 62
210 204 204 202 208 204 194 206 190 166 186 194 217 246 258 342 161 106 205 188 190 187 202 213 186 179 230 59 36 14 15 4 337 334 356 3 13 11 12 14 18 63 77 88
201 189 169 202 184 142 138 149 159 179 210 227 222 210 265 121 165 314 299 238 208 200 213 179 217 79 85 62 64 37 10 357 350 352 354 353 355 356 357 12 11 20 52 85
191 161 179 141 141 110 172 122 179 193 207 209 222 195 222 261 147 210 219 289 95 228 228 238 208 125 79 39 35 35 17 0 4 3 346 347 341 343 343 351 6 13 30 57
172 136 124 157 133 151 161 177 188 205 231 200 199 203 192 254 136 115 241 267 1 264 34 239 186 91 49 26 22 28 14 10 5 8 358 351 350 355 347 1 7 25 51 81
149 125 166 170 164 177 181 186 199 196 204 188 172 176 161 266 123 111 171 216 235 40 12 294 70 95 55 13 9 12 23 15 11 9 8 4 359 8 9 1 3 28 63 82
152 159 160 180 192 217 190 182 165 215 142 150 138 130 184 179 97 149 161 237 267 236 227 205 72 41 11 18 12 9 5 13 8 11 11 10 5 5 17 20 19 52 74 86
133 137 184 193 194 168 150 139 108 68 104 122 97 68 114 62 108 194 144 208 252 228 219 196 77 1 1 16 11 11 3 0 0 359 13 14 19 26 26 28 40 67 89 99
73 37 86 141 102 77 51 54 96 23 111 153 66 113 77 179 153 163 209 173 233 250 161 264 333 8 8 339 349 333 314 353 356 9 9 19 23 30 40 49 55 68 89 98
65 20 14 16 58 67 63 36 6 339 221 169 139 108 199 136 115 142 28 168 244 301 25 307 259 249 275 286 286 295 280 280 354 24 27 34 41 56 60 50 51 74 86 100